Wind_Speed
28 30 31 31 33 34 35 35 36 38 39 40 40 40 40 40 40 41 40 40 39 39 40 40 39 39 39 39 38 38 38 37 37 38 39 40 39 38 36 36 36 36 35
27 29 30 31 32 33 35 36 37 38 38 38 38 40 40 39 39 40 41 40 40 39 39 39 39 39 39 39 39 38 38 38 38 38 39 40 40 40 39 38 36 36 36
26 28 30 31 31 31 33 34 36 37 38 39 39 40 39 39 40 39 40 41 40 39 39 39 39 39 39 39 39 38 38 39 39 39 39 40 41 40 39 38 37 38 38
25 27 28 29 30 30 32 33 34 34 35 36 37 38 37 38 39 39 38 39 40 40 39 38 39 39 39 39 39 39 39 39 39 39 39 39 40 41 40 39 38 38 38
24 25 27 28 29 30 32 32 33 33 33 34 35 34 35 36 37 38 37 37 37 38 38 38 39 39 39 38 38 38 39 39 38 38 38 39 38 39 41 40 39 38 37
23 24 25 27 28 29 30 31 31 32 33 33 34 33 34 34 34 35 35 36 35 35 36 36 37 37 37 37 37 37 38 37 37 37 37 36 36 37 38 38 38 38 37
22 23 24 25 26 28 28 29 31 31 31 32 33 32 32 33 34 34 35 35 34 34 34 34 35 36 36 37 37 38 38 37 36 36 36 35 35 36 37 37 37 37 36
22 23 24 25 25 26 27 28 29 30 31 32 32 32 32 33 33 34 35 35 34 34 33 33 35 37 37 37 37 37 36 36 36 36 36 35 35 36 37 37 37 37 37
22 22 24 24 25 26 27 28 28 29 29 30 30 31 31 32 33 33 34 35 35 34 34 34 35 36 37 37 37 37 36 35 35 36 36 36 35 36 37 37 37 38 38
20 21 22 22 23 24 25 26 27 28 29 30 30 29 30 31 32 33 34 34 34 34 35 34 35 36 37 37 37 38 37 36 35 35 35 35 34 36 37 37 38 39 38
20 21 21 22 23 23 25 26 27 28 29 29 29 28 29 30 31 32 32 33 33 34 33 34 34 35 36 36 35 36 36 35 35 35 35 35 36 36 36 35 36 37 37
21 21 22 22 23 23 24 25 26 27 28 28 28 28 27 28 30 31 31 32 33 33 33 33 33 34 35 35 35 34 35 35 35 35 35 35 35 35 36 36 36 36 37
21 21 22 22 22 22 23 24 25 26 26 27 27 28 28 27 29 30 30 31 32 32 32 32 32 34 35 34 34 34 35 35 35 35 35 35 35 35 36 35 35 35 36
20 20 21 21 21 21 22 23 24 25 26 26 26 26 26 27 29 29 31 31 31 32 32 32 33 33 34 34 34 34 35 35 36 36 36 35 36 36 35 35 35 35 36
20 20 20 21 21 22 22 22 22 23 24 25 26 26 26 27 28 29 29 29 30 30 30 30 31 32 32 32 33 33 34 35 36 37 37 36 35 35 35 35 36 36 37
21 21 21 22 21 21 21 21 22 23 24 24 25 25 26 27 27 28 28 29 29 28 28 29 29 30 31 31 31 32 33 34 35 35 35 35 35 34 35 35 36 36 35
21 21 21 21 21 21 21 21 21 22 24 25 25 25 25 27 27 28 28 28 28 28 29 28 29 29 30 30 31 32 32 32 32 33 33 33 33 33 34 34 35 34 32
21 21 20 20 21 21 21 21 22 23 25 26 27 27 27 27 27 27 27 27 28 28 28 28 29 30 30 30 30 30 30 30 30 31 32 33 32 33 34 34 34 32 31
21 21 21 21 22 22 22 22 24 25 25 26 27 28 27 27 27 27 27 28 29 29 28 29 29 30 30 30 29 29 29 29 29 29 30 31 32 32 33 32 32 31 30
22 22 21 22 22 22 23 23 24 25 26 27 27 27 27 27 27 27 27 28 28 29 29 28 29 30 31 29 29 29 29 29 28 29 29 30 30 31 31 30 31 31 31
22 22 22 22 22 22 22 23 23 25 26 26 25 26 25 25 26 26 26 27 27 27 28 28 27 28 28 29 29 28 28 29 29 29 29 30 30 30 30 29 30 30 30
23 22 22 22 23 23 23 23 23 23 24 24 24 24 24 23 24 25 25 26 26 26 27 27 27 27 27 27 27 27 27 27 28 28 29 29 29 29 29 30 30 29 29
23 23 23 23 23 23 23 23 23 23 23 24 24 24 24 23 23 23 23 23 23 23 24 24 24 25 25 25 25 25 25 25 26 27 28 28 28 28 29 29 29 28 29
23 23 23 23 23 23 23 23 23 24 24 24 24 24 24 23 23 23 23 23 23 23 24 24 24 25 25 25 25 25 25 26 26 27 27 27 27 28 28 28 28 28 29
23 23 24 23 23 23 23 23 23 24 24 24 23 23 23 23 23 23 23 23 23 24 24 24 24 24 24 25 25 25 25 25 25 25 26 26 26 26 26 26 27 28 29
23 23 24 24 24 24 24 24 24 24 24 24 24 24 23 23 23 24 23 23 23 24 24 24 24 24 24 25 25 25 25 25 25 25 25 26 26 25 26 26 27 27 28
Wind_Direction
253 252 253 251 249 248 248 248 250 251 250 251 252 252 255 255 256 258 259 259 259 259 259 260 260 261 261 261 262 262 262 261 262 262 261 258 257 256 259 262 264 266 268
259 254 255 254 253 251 250 250 252 253 252 253 254 255 256 257 258 260 258 259 260 259 259 260 259 261 262 261 261 263 262 263 262 262 262 259 258 255 258 261 263 265 267
263 257 257 256 255 255 255 254 254 254 253 253 255 256 257 259 260 260 260 260 259 258 258 259 258 259 261 261 261 262 262 263 264 264 263 260 257 255 257 259 263 265 266
267 261 259 258 257 258 258 257 255 254 254 255 258 259 260 261 261 260 260 261 259 259 259 258 257 258 260 260 260 261 262 263 265 265 263 262 260 257 257 259 262 265 266
271 264 261 261 260 260 259 257 255 255 255 258 261 262 263 263 261 260 260 260 260 259 258 257 256 257 258 259 258 260 263 264 265 264 263 261 260 260 258 258 261 264 266
273 269 266 265 262 262 262 258 256 255 255 258 262 263 263 262 261 260 260 260 261 260 259 256 256 256 258 258 258 260 263 264 264 262 261 261 261 262 260 260 261 263 266
274 269 266 267 266 264 263 259 256 255 257 260 262 263 261 261 261 262 262 261 260 258 257 257 257 257 257 258 259 261 262 261 262 261 260 260 263 262 261 261 263 266 267
275 269 267 269 268 267 264 260 256 257 260 262 262 261 260 260 262 263 263 261 258 257 258 259 259 258 256 258 260 262 262 260 260 260 259 259 262 263 263 263 266 267 267
273 271 272 271 269 268 265 260 258 260 262 264 263 260 261 262 263 263 262 261 259 257 258 260 258 257 257 259 259 260 260 259 260 259 259 260 263 263 264 265 266 267 269
275 272 273 273 271 269 265 262 265 263 263 263 262 262 265 264 263 263 261 261 258 258 261 260 259 258 257 259 261 260 259 258 259 259 259 261 262 262 265 265 266 268 269
280 277 274 272 273 271 269 267 268 267 266 264 264 266 266 265 263 262 258 258 258 259 259 259 258 256 256 258 259 258 258 258 258 257 259 260 262 264 265 266 267 268 269
282 280 279 276 275 274 272 270 269 269 267 263 263 267 268 268 266 263 259 258 259 259 260 257 257 257 256 257 257 257 257 257 256 257 257 259 262 264 266 267 267 269 271
283 282 282 278 277 277 275 274 273 272 266 264 266 270 270 268 268 263 260 259 259 259 258 257 257 256 256 256 258 258 258 257 256 257 259 261 264 265 267 267 269 272 274
282 283 283 278 278 278 279 279 277 273 267 265 268 269 268 268 268 264 260 260 259 258 259 258 257 257 257 257 258 259 259 257 256 258 260 263 265 266 268 268 270 273 275
283 285 284 281 280 280 281 281 277 272 267 268 269 269 269 270 269 265 261 259 258 259 258 256 257 258 259 259 259 260 260 258 258 259 260 264 267 268 268 269 271 272 273
286 285 284 283 282 281 282 281 275 271 270 272 272 271 270 272 270 268 262 261 262 260 257 257 258 259 260 260 261 262 260 260 261 261 263 265 267 269 269 269 271 273 273
288 286 285 283 282 280 279 279 276 275 274 274 275 273 273 273 272 270 267 264 262 260 258 256 256 258 259 260 262 261 262 263 263 263 263 265 268 270 270 271 271 272 272
287 285 285 284 285 285 282 279 275 276 278 277 277 275 275 272 271 271 269 266 264 261 259 257 257 259 259 260 262 264 263 263 264 265 265 265 266 270 271 272 272 272 272
288 286 285 285 287 285 283 279 278 279 280 279 278 277 274 272 272 272 272 269 265 262 260 260 259 260 261 263 264 265 264 265 265 267 267 267 268 270 272 272 272 271 272
288 287 288 288 289 288 285 281 280 281 282 282 280 277 276 274 272 271 271 269 266 265 262 263 264 263 263 264 265 265 266 266 267 267 268 269 269 271 271 271 271 271 271
288 289 289 288 288 287 283 282 282 283 284 284 280 278 276 274 273 272 270 268 266 266 265 264 265 265 263 264 265 265 266 267 267 267 267 268 269 270 270 271 271 270 272
287 288 288 288 288 286 283 282 282 283 285 284 281 278 277 277 276 275 272 268 266 265 265 263 264 264 264 265 264 264 265 265 265 266 268 269 270 271 272 272 271 270 271
286 288 289 289 289 287 285 284 284 284 288 287 284 281 280 280 279 278 274 269 267 265 264 264 265 265 265 265 265 263 263 264 265 267 271 271 272 272 272 273 271 270 272
285 287 288 288 287 286 285 285 287 288 288 288 285 283 283 281 278 277 274 270 267 265 266 267 267 266 266 266 265 264 265 266 268 270 272 273 273 272 272 272 271 272 273
284 285 285 286 286 285 284 285 287 286 286 287 285 283 282 281 279 277 276 272 268 265 265 265 265 264 264 264 264 264 265 266 269 271 273 273 273 273 274 274 273 272 272
284 285 285 284 284 283 282 284 287 287 286 283 282 282 282 281 279 279 278 273 270 268 267 267 266 264 265 265 265 265 266 268 271 272 273 274 273 272 274 274 273 272 272
Height
5697 5698 5699 5701 5702 5704 5706 5708 5710 5712 5714 5717 5719 5721 5722 5724 5724 5725 5726 5727 5728 5729 5730 5731 5732 5733 5733 5734 5735 5735 5736 5737 5737 5739 5740 5740 5741 5743 5744 5745 5746 5746 5747
5691 5691 5692 5693 5694 5696 5698 5699 5701 5703 5705 5706 5708 5711 5712 5713 5714 5715 5716 5717 5717 5718 5719 5721 5722 5723 5723 5724 5725 5726 5726 5727 5727 5728 5729 5730 5732 5733 5735 5736 5737 5738 5738
5684 5684 5684 5685 5686 5687 5689 5690 5692 5693 5695 5696 5698 5700 5701 5703 5704 5705 5706 5706 5707 5708 5709 5710 5712 5713 5714 5715 5715 5716 5717 5718 5718 5718 5719 5720 5721 5724 5726 5727 5728 5728 5729
5677 5677 5677 5678 5679 5679 5680 5681 5682 5683 5685 5686 5687 5689 5690 5692 5693 5694 5695 5696 5697 5697 5698 5700 5701 5702 5704 5705 5706 5706 5707 5708 5708 5708 5709 5710 5711 5714 5716 5718 5718 5719 5719
5670 5670 5670 5671 5671 5671 5672 5672 5673 5674 5675 5677 5678 5679 5680 5681 5683 5683 5685 5685 5686 5687 5688 5689 5691 5692 5693 5695 5696 5697 5698 5698 5699 5699 5699 5700 5702 5704 5706 5708 5709 5709 5709
5664 5664 5664 5664 5664 5664 5664 5664 5665 5666 5667 5668 5669 5670 5671 5671 5673 5673 5674 5675 5675 5676 5677 5679 5681 5682 5684 5685 5686 5687 5688 5688 5689 5689 5690 5692 5693 5695 5696 5697 5699 5700 5700
5658 5658 5657 5657 5657 5657 5656 5656 5657 5658 5660 5660 5661 5661 5661 5662 5663 5664 5665 5665 5666 5667 5668 5670 5671 5673 5674 5675 5677 5678 5678 5679 5679 5680 5682 5683 5685 5686 5687 5687 5688 5690 5690
5652 5651 5650 5650 5650 5649 5649 5649 5650 5651 5652 5652 5652 5652 5653 5653 5654 5654 5655 5656 5657 5658 5660 5661 5662 5663 5665 5666 5667 5668 5668 5669 5670 5671 5673 5675 5676 5677 5678 5678 5679 5679 5680
5646 5645 5644 5643 5643 5642 5642 5642 5642 5643 5644 5644 5644 5645 5645 5645 5645 5645 5646 5647 5648 5649 5651 5652 5653 5654 5655 5656 5657 5658 5659 5660 5661 5663 5664 5666 5667 5668 5669 5669 5669 5670 5670
5641 5640 5639 5638 5637 5636 5635 5635 5635 5635 5636 5636 5636 5637 5637 5637 5637 5637 5638 5638 5639 5641 5642 5643 5644 5645 5646 5647 5648 5649 5649 5651 5652 5654 5655 5657 5658 5659 5659 5660 5660 5659 5660
5636 5634 5633 5632 5631 5630 5629 5628 5628 5628 5628 5629 5629 5629 5629 5628 5628 5629 5629 5630 5631 5632 5633 5634 5635 5636 5637 5638 5639 5640 5641 5642 5643 5645 5647 5648 5649 5649 5650 5651 5651 5651 5650
5630 5629 5627 5626 5625 5623 5622 5621 5621 5621 5620 5621 5621 5621 5621 5620 5620 5621 5621 5622 5623 5623 5624 5625 5626 5627 5629 5630 5631 5632 5633 5634 5635 5637 5638 5639 5640 5640 5641 5641 5642 5641 5640
5624 5623 5622 5620 5619 5617 5616 5615 5614 5613 5613 5613 5614 5613 5613 5613 5612 5613 5613 5614 5614 5615 5615 5615 5617 5618 5620 5621 5623 5624 5625 5626 5628 5629 5630 5631 5631 5632 5632 5632 5632 5632 5631
5619 5617 5616 5615 5613 5612 5610 5609 5608 5607 5607 5607 5606 5606 5605 5605 5605 5604 5605 5605 5606 5606 5606 5607 5609 5610 5612 5613 5614 5616 5617 5618 5619 5620 5621 5622 5622 5623 5623 5623 5623 5623 5622
5614 5612 5611 5609 5608 5606 5605 5603 5602 5601 5600 5600 5600 5599 5599 5598 5598 5597 5597 5597 5598 5598 5598 5599 5601 5602 5603 5605 5606 5607 5609 5610 5611 5612 5612 5613 5613 5614 5614 5614 5614 5613 5612
5609 5607 5605 5603 5602 5600 5599 5597 5596 5595 5594 5593 5593 5592 5592 5591 5590 5589 5589 5590 5590 5590 5591 5592 5593 5594 5595 5597 5598 5599 5600 5601 5602 5603 5604 5605 5605 5605 5605 5605 5604 5604 5603
5603 5601 5599 5598 5596 5594 5593 5592 5590 5589 5588 5587 5586 5585 5584 5584 5583 5582 5582 5582 5582 5582 5583 5584 5585 5587 5588 5589 5590 5591 5592 5593 5594 5595 5595 5596 5596 5596 5597 5596 5596 5595 5594
5598 5596 5594 5592 5590 5589 5588 5586 5585 5584 5582 5581 5580 5579 5577 5576 5576 5575 5574 5574 5575 5575 5575 5576 5577 5579 5580 5581 5583 5583 5584 5585 5586 5586 5587 5587 5588 5588 5588 5587 5586 5586 5585
5592 5590 5588 5586 5585 5583 5582 5580 5579 5578 5576 5575 5573 5572 5571 5570 5569 5567 5566 5566 5567 5567 5568 5569 5570 5571 5572 5573 5575 5575 5576 5577 5578 5578 5578 5579 5579 5579 5579 5578 5578 5577 5576
5586 5584 5582 5581 5579 5577 5576 5575 5573 5572 5570 5568 5567 5565 5564 5563 5561 5560 5559 5559 5559 5560 5561 5561 5562 5563 5564 5565 5567 5568 5568 5569 5570 5570 5570 5570 5570 5570 5569 5569 5569 5568 5568
5580 5578 5576 5575 5573 5572 5570 5569 5567 5566 5564 5562 5560 5559 5557 5556 5555 5553 5553 5552 5552 5552 5553 5554 5555 5555 5556 5558 5559 5559 5560 5561 5561 5561 5562 5561 5561 5561 5560 5560 5560 5559 5559
5574 5572 5571 5569 5567 5566 5564 5562 5561 5560 5558 5556 5554 5552 5551 5549 5548 5547 5546 5545 5545 5545 5546 5546 5547 5548 5548 5550 5550 5551 5552 5552 5553 5553 5553 5553 5552 5552 5552 5551 5551 5551 5551
5567 5566 5564 5563 5561 5559 5557 5556 5554 5553 5551 5549 5547 5546 5544 5542 5541 5540 5539 5539 5539 5539 5539 5539 5539 5540 5541 5541 5542 5543 5543 5544 5545 5545 5545 5544 5544 5544 5543 5543 5542 5542 5542
5561 5559 5558 5556 5555 5553 5551 5550 5548 5546 5544 5542 5540 5539 5537 5535 5534 5533 5532 5532 5532 5532 5532 5532 5532 5533 5533 5534 5534 5535 5536 5536 5537 5537 5537 5536 5535 5535 5535 5534 5534 5534 5534
5554 5552 5551 5550 5548 5547 5545 5543 5541 5539 5537 5535 5533 5532 5530 5529 5527 5526 5525 5525 5525 5524 5524 5524 5525 5525 5526 5526 5527 5527 5528 5528 5529 5529 5528 5528 5527 5527 5526 5526 5526 5526 5526
5546 5545 5544 5542 5541 5540 5538 5536 5534 5532 5530 5528 5526 5525 5523 5522 5520 5520 5519 5518 5518 5517 5517 5517 5517 5518 5518 5518 5519 5520 5520 5520 5521 5521 5520 5520 5519 5519 5519 5518 5518 5517 5517